[[{"header":{"parameterUnit":"m.s-1","parameterCategory":1,"la1":30.2991,"la2":30.254,"lo1":-89.0895,"lo2":-89.0444,"dy":0.0017,"dx":0.0017,"nx":28,"ny":28,"refTime":"2025-01-25T03:00:00:Z","depth":0,"parameterNumber":2,"parameterNumberName":"U-component_of_WINDS"},"data":[0,0,0,0,0,0,0,0,0,0,0,0,0,0,0,0,0,0,0,0,0,0,0,0,0,0,0,0,0,0,0,0,0,0,0,0,0,0,0,0,0,0,0,0,0,0,0,0,0,0,0,0,0,0,0,0,0,0,-4.2352,-4.2352,0,-4.2362,-4.2362,-4.2362,-4.2233,-4.223,-4.2226,-4.2223,-4.2231,-4.2235,-4.2238,0,0,0,0,0,0,0,0,0,0,0,0,0,-4.222,-4.2223,-4.2352,-4.2352,-4.2352,-4.2362,-4.2362,-4.2362,-4.2234,-4.223,-4.2225,-4.2221,-4.223,-4.2234,-4.2239,0,0,0,0,0,0,0,0,0,0,0,0,0,-4.2258,-4.2224,-4.2352,-4.2289,-4.2284,-4.2362,-4.2362,-4.2362,-4.2235,-4.223,-4.2224,-4.2219,-4.2229,-4.2234,-4.2239,-4.2376,0,0,-4.2255,-4.2257,0,0,0,0,0,0,0,0,-4.2256,-4.2263,-4.2299,-4.2294,-4.2288,-4.2291,-4.2318,-4.2367,-4.2236,-4.2254,-4.2223,-4.2217,-4.2255,-4.2258,-4.2271,-4.2377,-4.2377,-4.2256,-4.2259,-4.2261,-4.2262,0,0,0,0,0,0,0,-4.2254,-4.2262,-4.2356,-4.2299,-4.2293,-4.226,-4.226,-4.2327,-4.2284,-4.2252,-4.2242,-4.2245,-4.2251,-4.2267,-4.2271,-4.2377,-4.2255,-4.226,-4.2263,-4.2265,-4.2593,-4.2598,0,0,0,0,0,0,-4.226,-4.2261,-4.2355,-4.2356,-4.2259,-4.2267,-4.2266,-4.2295,-4.2283,-4.2276,-4.225,-4.2239,-4.226,-4.2265,-4.227,-4.2427,-4.2261,-4.2266,-4.2269,-4.2587,-4.2594,-4.26,0,0,0,0,0,0,-4.2258,-4.227,-4.2355,-4.2306,-4.2314,-4.2275,-4.2308,-4.2298,-4.2313,-4.2281,-4.2273,-4.2273,-4.2256,-4.2263,-4.235,-4.2426,-4.2268,-4.2273,-4.2581,-4.259,-4.2597,-4.2745,0,0,0,0,0,0,-4.2254,-4.227,-4.2322,-4.2308,-4.2317,-4.2436,-4.2313,-4.2302,-4.2323,-4.2309,-4.2301,-4.2295,-4.2253,-4.2343,-4.2356,-4.243,-4.2277,-4.2574,-4.2585,-4.2595,-4.2733,-4.2757,-4.2778,0,0,0,0,0,-4.225,-4.2363,-4.2325,-4.2337,-4.2382,-4.244,-4.2446,-4.2396,-4.233,-4.2381,-4.236,-4.2295,-4.2417,-4.2353,-4.2366,-4.2444,-4.2569,-4.2582,-4.2594,-4.2723,-4.2753,-4.2778,0,0,0,0,0,0,-4.2386,-4.236,-4.2318,-4.243,-4.2439,-4.2419,-4.2482,-4.2429,-4.2456,-4.2442,-4.2378,-4.2378,-4.2475,-4.2468,-4.2398,-4.2575,-4.2481,-4.2497,-4.2575,-4.2603,-4.2625,-4.2623,-4.2281,0,0,0,0,0,-4.243,-4.248,-4.2454,-4.2556,-4.2562,-4.2522,-4.2546,-4.2506,-4.2512,-4.2515,-4.2501,-4.2509,-4.2548,-4.2576,-4.2611,-4.2733,-4.2728,-4.2792,-4.2815,-4.2834,-4.2847,-4.2908,-4.2936,-4.2641,-4.2641,-4.2641,0,0,-4.2519,-4.2511,-4.2547,-4.2583,-4.2585,-4.2637,-4.2526,-4.2586,-4.2624,-4.2524,-4.2605,-4.2595,-4.26,-4.2705,-4.275,-4.2702,-4.2927,-4.285,-4.2865,-4.2867,-4.2924,-4.2952,-4.2977,-4.265,-4.2648,-4.2647,0,0,-4.2708,-4.2708,-4.2791,-4.2796,-4.28,-4.2773,-4.2793,-4.2782,-4.2771,-4.2852,-4.2777,-4.2821,-4.2892,-4.2897,-4.2909,-4.3101,-4.3041,-4.3115,-4.3231,-4.3291,-4.3315,-4.3335,-4.34,-4.3425,-4.3128,-4.3129,-4.3129,0,-4.2818,-4.2894,-4.2841,-4.2906,-4.2923,-4.2836,-4.2919,-4.2926,-4.2942,-4.2955,-4.2902,-4.2987,-4.2984,-4.3088,-4.3134,-4.3149,-4.3168,-4.3113,-4.3316,-4.3335,-4.3353,-4.3415,-4.344,-4.3137,-4.3137,-4.3136,-4.3135,0,-4.3028,-4.3082,-4.3149,-4.3166,-4.3191,-4.3265,-4.3221,-4.3253,-4.3213,-4.3191,-4.3273,-4.3267,-4.3298,-4.332,-4.3281,-4.3418,-4.3388,-4.3327,-4.323,-4.3391,-4.3447,-4.3471,-4.315,-4.3147,-4.3144,-4.3142,0,0,-4.33,-4.3287,-4.3312,-4.3318,-4.3317,-4.3357,-4.3427,-4.3458,-4.3485,-4.35,-4.3555,-4.3617,-4.356,-4.3574,-4.3535,-4.3589,-4.3737,-4.352,-4.3519,-4.3558,-4.3885,-4.3928,-4.3956,-4.3699,-4.3703,-4.3707,-4.3883,0,-4.3481,-4.3598,-4.3552,-4.3673,-4.3721,-4.364,-4.37,-4.3706,-4.3688,-4.3725,-4.3705,-4.3748,-4.3672,-4.3679,-4.3729,-4.3709,-4.3801,-4.3696,-4.3747,-4.375,-4.3745,-4.3986,-4.4033,-4.4199,-4.3905,-4.3909,-4.3912,0,-4.3707,-4.373,-4.3856,-4.3845,-4.3863,-4.3919,-4.3942,-4.398,-4.3984,-4.3967,-4.3983,-4.3932,-4.3998,-4.3906,-4.3995,-4.3924,-4.3943,-4.3937,-4.3942,-4.3941,-4.3838,-4.3989,-4.4251,-4.4275,-4.3947,-4.3944,-4.3941,0,-4.3888,-4.3952,-4.4034,-4.4043,-4.4033,-4.4073,-4.4071,-4.407,-4.4091,-4.4113,-4.4125,-4.4154,-4.417,-4.4193,-4.4151,-4.4088,-4.4245,-4.4149,-4.423,-4.4232,-4.4264,-4.4262,-4.4529,-4.4283,-4.4283,-4.4282,-4.4282,0,-4.4093,-4.4172,-4.4115,-4.4166,-4.4252,-4.4199,-4.4285,-4.4274,-4.4274,-4.432,-4.4253,-4.4298,-4.4241,-4.428,-4.4248,-4.4325,-4.4334,-4.432,-4.431,-4.4324,-4.4325,-4.4332,-4.4318,-4.4289,-4.4287,-4.4286,-4.4285,0,-4.4308,-4.4274,-4.4358,-4.4343,-4.4341,-4.4404,-4.439,-4.4436,-4.4414,-4.4473,-4.4484,-4.4448,-4.4491,-4.4452,-4.4493,-4.4471,-4.4573,-4.4548,-4.4571,-4.4563,-4.4645,-4.4636,-4.4923,-4.4956,-4.4693,-4.4696,-4.4698,0,-4.4439,-4.4498,-4.4489,-4.4515,-4.4517,-4.456,-4.4581,-4.4532,-4.4556,-4.4566,-4.461,-4.4647,-4.4673,-4.4744,-4.4722,-4.4752,-4.4725,-4.4824,-4.4729,-4.4741,-4.4722,-4.4718,-4.4722,-4.4842,-4.4845,-4.4847,-4.485,0,-4.4673,-4.4653,-4.4686,-4.4714,-4.4741,-4.476,-4.4774,-4.48,-4.4748,-4.478,-4.4822,-4.4843,-4.4884,-4.4921,-4.4944,-4.4941,-4.4886,-4.488,-4.49,-4.4912,-4.4922,-4.4914,-4.4619,-4.4873,-4.487,-4.4869,-4.4867,-4.4867,-4.4847,-4.4895,-4.4896,-4.4934,-4.494,-4.4955,-4.4996,-4.4979,-4.5014,-4.5043,-4.5012,-4.5064,-4.5066,-4.5092,-4.5095,-4.5134,-4.5092,-4.5122,-4.5128,-4.5136,-4.5146,-4.492,-4.5139,-4.5138,-4.5137,-4.5137,-4.5136,0,-4.5075,-4.5071,-4.5108,-4.5129,-4.516,-4.5108,-4.512,-4.5149,-4.5195,-4.5202,-4.5229,-4.5277,-4.5313,-4.5294,-4.5324,-4.5359,-4.5334,-4.5368,-4.5363,-4.5362,-4.5183,-4.5161,-4.5387,-4.5387,-4.5387,-4.5387,-4.5387,-4.5387,-4.5196,-4.5273,-4.5254,-4.5332,-4.5328,-4.5377,-4.5389,-4.5401,-4.5406,-4.5463,-4.5492,-4.548,-4.5476,-4.5506,-4.5536,-4.5529,-4.5542,-4.5584,-4.5568,-4.54,-4.5375,-4.5352,-4.533,-4.5588,-4.5589,-4.5743,-4.5745,-4.5746]},{"header":{"parameterUnit":"m.s-1","parameterCategory":1,"la1":30.2991,"la2":30.254,"lo1":-89.0895,"lo2":-89.0444,"dy":0.0017,"dx":0.0017,"nx":28,"ny":28,"refTime":"2025-01-25T03:00:00:Z","depth":0,"parameterNumber":3,"parameterNumberName":"V-component_of_WINDS"},"data":[0,0,0,0,0,0,0,0,0,0,0,0,0,0,0,0,0,0,0,0,0,0,0,0,0,0,0,0,0,0,0,0,0,0,0,0,0,0,0,0,0,0,0,0,0,0,0,0,0,0,0,0,0,0,0,0,0,0,-0.6588,-0.6589,0,-0.6655,-0.6655,-0.6656,-0.6707,-0.6707,-0.6708,-0.6708,-0.6776,-0.6777,-0.6779,0,0,0,0,0,0,0,0,0,0,0,0,0,-0.6505,-0.6506,-0.6588,-0.6589,-0.659,-0.6654,-0.6655,-0.6656,-0.6707,-0.6707,-0.6708,-0.6709,-0.6775,-0.6777,-0.6779,0,0,0,0,0,0,0,0,0,0,0,0,0,-0.6553,-0.6506,-0.6588,-0.6623,-0.6627,-0.6654,-0.6655,-0.6656,-0.6707,-0.6707,-0.6708,-0.6709,-0.6775,-0.6777,-0.6779,-0.6777,0,0,-0.6785,-0.6786,0,0,0,0,0,0,0,0,-0.655,-0.6556,-0.6617,-0.6621,-0.6625,-0.6673,-0.6651,-0.6697,-0.6707,-0.6676,-0.6708,-0.6709,-0.6741,-0.6746,-0.6757,-0.678,-0.6783,-0.6785,-0.6786,-0.6787,-0.6788,0,0,0,0,0,0,0,-0.6547,-0.6553,-0.6615,-0.6618,-0.6623,-0.6635,-0.6643,-0.666,-0.6704,-0.6679,-0.6683,-0.669,-0.6743,-0.6755,-0.6759,-0.6784,-0.6785,-0.6787,-0.6788,-0.6789,-0.6806,-0.6806,0,0,0,0,0,0,-0.6538,-0.655,-0.6613,-0.6617,-0.6589,-0.6636,-0.6644,-0.6657,-0.6704,-0.6712,-0.6689,-0.6692,-0.6751,-0.6756,-0.6761,-0.676,-0.6787,-0.6789,-0.679,-0.6807,-0.6806,-0.6805,0,0,0,0,0,0,-0.6536,-0.6543,-0.661,-0.6584,-0.6594,-0.6637,-0.665,-0.6658,-0.6669,-0.6712,-0.672,-0.6693,-0.6752,-0.6758,-0.6772,-0.6763,-0.679,-0.6792,-0.6808,-0.6807,-0.6806,-0.6759,0,0,0,0,0,0,-0.6533,-0.6542,-0.6542,-0.6584,-0.6595,-0.662,-0.665,-0.6659,-0.6673,-0.6677,-0.6717,-0.6724,-0.6753,-0.6769,-0.6774,-0.6767,-0.6794,-0.6809,-0.6807,-0.6806,-0.6762,-0.6757,-0.6752,0,0,0,0,0,-0.653,-0.6527,-0.6542,-0.6549,-0.6596,-0.6619,-0.6626,-0.6658,-0.6672,-0.6672,-0.6699,-0.6723,-0.6764,-0.677,-0.6776,-0.6769,-0.681,-0.6808,-0.6806,-0.6764,-0.6758,-0.6753,0,0,0,0,0,0,-0.6484,-0.6533,-0.655,-0.6561,-0.6585,-0.6628,-0.6629,-0.6651,-0.6672,-0.6676,-0.6715,-0.6724,-0.6733,-0.6753,-0.6759,-0.6769,-0.679,-0.6789,-0.6755,-0.675,-0.6745,-0.674,-0.6795,0,0,0,0,0,-0.6475,-0.649,-0.6532,-0.6537,-0.6548,-0.6586,-0.6598,-0.6621,-0.6648,-0.6658,-0.6686,-0.6711,-0.673,-0.6741,-0.676,-0.6765,-0.6773,-0.6763,-0.6759,-0.6755,-0.6753,-0.6755,-0.6751,-0.68,-0.68,-0.68,0,0,-0.6456,-0.6485,-0.6492,-0.6528,-0.655,-0.6564,-0.6595,-0.6609,-0.6619,-0.6661,-0.6675,-0.6696,-0.6726,-0.6735,-0.674,-0.6752,-0.6742,-0.6752,-0.6749,-0.675,-0.6753,-0.6748,-0.6744,-0.6799,-0.6799,-0.6799,0,0,-0.6429,-0.6453,-0.6459,-0.648,-0.6512,-0.6537,-0.6538,-0.6577,-0.6592,-0.6607,-0.6638,-0.665,-0.6681,-0.6701,-0.6715,-0.6693,-0.6716,-0.6698,-0.6674,-0.6675,-0.6671,-0.6668,-0.6658,-0.6654,-0.6697,-0.6697,-0.6697,0,-0.6402,-0.6424,-0.6459,-0.647,-0.6485,-0.6522,-0.6527,-0.6546,-0.6583,-0.6591,-0.6604,-0.6642,-0.6666,-0.6678,-0.6672,-0.6683,-0.6685,-0.6694,-0.6669,-0.6666,-0.6663,-0.6654,-0.6651,-0.6695,-0.6695,-0.6695,-0.6696,0,-0.6389,-0.6403,-0.6404,-0.6437,-0.6452,-0.646,-0.6495,-0.6506,-0.6527,-0.655,-0.6563,-0.6592,-0.6617,-0.6622,-0.6643,-0.6637,-0.6643,-0.6661,-0.6683,-0.6655,-0.6648,-0.6645,-0.6691,-0.6692,-0.6693,-0.6693,0,0,-0.6335,-0.6386,-0.6386,-0.64,-0.6438,-0.645,-0.6459,-0.6482,-0.649,-0.6513,-0.6521,-0.6545,-0.6562,-0.6578,-0.6602,-0.6603,-0.6581,-0.6622,-0.6623,-0.6612,-0.6573,-0.6558,-0.6554,-0.6596,-0.6596,-0.6596,-0.657,0,-0.6313,-0.6331,-0.6362,-0.637,-0.6383,-0.6418,-0.6426,-0.6449,-0.647,-0.6484,-0.6508,-0.6524,-0.6546,-0.6555,-0.6558,-0.6583,-0.6574,-0.6586,-0.6603,-0.6603,-0.6593,-0.655,-0.6535,-0.6509,-0.6568,-0.6567,-0.6567,0,-0.629,-0.631,-0.6319,-0.6353,-0.636,-0.6366,-0.6389,-0.6403,-0.6429,-0.6444,-0.6461,-0.6486,-0.6496,-0.6516,-0.653,-0.6537,-0.6546,-0.6559,-0.6559,-0.6561,-0.6583,-0.655,-0.6503,-0.6498,-0.6563,-0.6563,-0.6564,0,-0.6248,-0.6278,-0.6286,-0.6298,-0.6339,-0.6342,-0.6359,-0.6386,-0.6397,-0.6418,-0.6425,-0.6446,-0.6457,-0.6473,-0.6503,-0.6515,-0.6512,-0.6535,-0.6524,-0.6523,-0.6522,-0.6521,-0.6474,-0.6529,-0.6529,-0.6529,-0.6529,0,-0.6219,-0.6223,-0.6268,-0.6273,-0.6278,-0.6312,-0.6316,-0.6336,-0.6359,-0.6368,-0.64,-0.6408,-0.6447,-0.6459,-0.6483,-0.6489,-0.6495,-0.6507,-0.6512,-0.6503,-0.6501,-0.6509,-0.6511,-0.6528,-0.6529,-0.6529,-0.6529,0,-0.6173,-0.6203,-0.6215,-0.6251,-0.6261,-0.6262,-0.6293,-0.6299,-0.6322,-0.6333,-0.6337,-0.6373,-0.6389,-0.642,-0.6444,-0.646,-0.6461,-0.6472,-0.6451,-0.6455,-0.6441,-0.6442,-0.6396,-0.6391,-0.6451,-0.645,-0.645,0,-0.6152,-0.6156,-0.6192,-0.62,-0.6216,-0.6229,-0.624,-0.6274,-0.6284,-0.6313,-0.6315,-0.6333,-0.6349,-0.6372,-0.6399,-0.6418,-0.6429,-0.6412,-0.6432,-0.6421,-0.6427,-0.6426,-0.6425,-0.6407,-0.6406,-0.6405,-0.6405,0,-0.6111,-0.6126,-0.6141,-0.6161,-0.6173,-0.6191,-0.621,-0.6214,-0.6252,-0.6262,-0.6278,-0.629,-0.6314,-0.6331,-0.6353,-0.637,-0.6393,-0.6398,-0.6396,-0.6386,-0.6373,-0.6378,-0.6438,-0.6399,-0.64,-0.64,-0.64,-0.6401,-0.6077,-0.608,-0.6106,-0.6121,-0.6139,-0.6155,-0.6162,-0.6184,-0.6198,-0.622,-0.6239,-0.6252,-0.6277,-0.6309,-0.6324,-0.6334,-0.6346,-0.6344,-0.6343,-0.6341,-0.6336,-0.6372,-0.6339,-0.6339,-0.6339,-0.6339,-0.6339,0,-0.6036,-0.6054,-0.6067,-0.6092,-0.6103,-0.6124,-0.6146,-0.6154,-0.6165,-0.6186,-0.62,-0.6217,-0.6233,-0.6261,-0.6279,-0.6282,-0.6293,-0.6285,-0.6285,-0.6288,-0.6326,-0.6325,-0.6276,-0.6276,-0.6276,-0.6276,-0.6276,-0.6276,-0.6016,-0.6023,-0.604,-0.6055,-0.6073,-0.6086,-0.6096,-0.6111,-0.6127,-0.6144,-0.6157,-0.6175,-0.6199,-0.6218,-0.6233,-0.6241,-0.6245,-0.6234,-0.6245,-0.628,-0.6286,-0.6291,-0.6291,-0.6235,-0.6235,-0.6206,-0.6206,-0.6205]}]]